This is the latest recevied weather packets stored in our database for station/object W6DSP. If no packets are shown the sender has not sent any weather packets the latest 10 day(s).
| Time | Temp. | Humidity | Pressure | Rain* | Wind** | Luminosity | Snow |
|---|---|---|---|---|---|---|---|
| 1778236146 | 7.78° C | 91% | 1012.7 hPa | 0 mm | - | - | - |
| 1778235431 | 7.22° C | 91% | 1012.6 hPa | 0 mm | - | - | - |
| 1778234670 | 7.22° C | 91% | 1012.7 hPa | 0 mm | - | - | - |
| 1778233910 | 7.22° C | 91% | 1012.6 hPa | 0 mm | - | - | - |
| 1778233159 | 6.67° C | 90% | 1012.8 hPa | 0 mm | - | - | - |
| 1778232448 | 7.22° C | 90% | 1013 hPa | 0 mm | - | - | - |
| 1778231731 | 7.22° C | 91% | 1013 hPa | 0 mm | - | - | - |
| 1778231008 | 6.67° C | 90% | 1012.9 hPa | 0 mm | - | - | - |
| 1778230295 | 6.67° C | 90% | 1012.9 hPa | 0 mm | - | - | - |
| 1778229537 | 6.67° C | 90% | 1012.8 hPa | 0 mm | - | - | - |
| 1778228805 | 6.67° C | 91% | 1012.9 hPa | 0 mm | - | - | - |
| 1778228066 | 6.67° C | 90% | 1012.8 hPa | 0 mm | - | - | - |
| 1778227334 | 6.67° C | 90% | 1012.9 hPa | 0 mm | - | - | - |
| 1778226574 | 6.67° C | 90% | 1012.8 hPa | 0 mm | - | - | - |
| 1778225867 | 6.67° C | 90% | 1012.8 hPa | 0 mm | - | - | - |
| 1778225169 | 6.11° C | 90% | 1012.7 hPa | 0 mm | - | - | - |
| 1778224444 | 6.11° C | 90% | 1012.8 hPa | 0 mm | - | - | - |
| 1778223717 | 6.11° C | 90% | 1012.9 hPa | 0 mm | - | - | - |
| 1778222268 | 6.11° C | 90% | 1013.1 hPa | 0 mm | - | - | - |
| 1778221577 | 6.11° C | 90% | 1013.2 hPa | 0 mm | - | - | - |
| 1778220865 | 6.11° C | 89% | 1013.1 hPa | 0 mm | - | - | - |
| 1778220173 | 6.11° C | 90% | 1013.2 hPa | 0 mm | - | - | - |
| 1778219439 | 6.67° C | 90% | 1013.3 hPa | 0 mm | - | - | - |
| 1778218724 | 6.67° C | 90% | 1013.5 hPa | 0 mm | - | - | - |
| 1778218029 | 6.67° C | 90% | 1013.5 hPa | 0 mm | - | - | - |
* Rain latest hour (hover to see other rain measurements)
** Current wind speed in m/s (hover to see current wind gust speed)